Content
SEND FEEDBACK

Daily
Averages
Monthly
Summary
United States of America

OTTO, NEW MEXICO


Home > North America > United States > New Mexico
Elevation: 6230 feet     Latitude: 35 05N     Longitude: 106 01W

WEATHER
 
SELECT A DAY
Number of Records: 47,689;   Date Range: 10/28/10 - 4/21/13
 
SHARE

PRINT THIS DATA

[ ← Previous Day ]
WEATHER ALMANAC - JANUARY 31, 2013
[ Next Day → ]
[ °C ]   °F
Weather ElementAverageHighLow
Temperature35.8 °F51.1 °F (3:35 pm)19.6 °F (11:55 pm)
Dewpoint18 °F22.8 °F (8:35 am)14.4 °F (11:55 pm)
Humidity52 %80 % (11:55 pm)26 % (3:35 pm)
Barometer30.21 in30.27 in (10:15 pm)30.15 in (1:15 am)
Wind Speed10.7 mph26.5 mph (11:35 am)
Wind Gust35.7 mph (11:55 am)
Weather ElementAverage
Visibility10 mi
Wind DirectionSW (221.2 °)

Weather ElementTotal
Precipitation---
Heating Degree Days29.7 (Base 65)
Averaged from 69 records on January 31, 2013
WEATHER CONDITIONS BREAKOUT
WIND DIRECTION BREAKOUT
WEATHER BY HOUR - JANUARY 31, 2013
[ °C ]   °F
Local TimeTemperatureDewpointHumidityBarometerVisibilityWind DirectionWind SpeedGust SpeedPrecipitationEventsConditions
12:35 AM29.1 °F18.9 °F66 %30.16 in10.0 miNNE (30°)6.9 mphScattered Clouds
12:55 AM31.8 °F19.4 °F60 %30.16 in10.0 miNorth (10°)9.2 mphMostly Cloudy
1:15 AM32.0 °F19.4 °F60 %30.15 in10.0 miNE (40°)9.2 mphScattered Clouds
1:35 AM32.0 °F19.8 °F61 %30.15 in10.0 miNorth (10°)4.6 mphClear
1:55 AM30.4 °F19.8 °F65 %30.15 in10.0 miNNE (20°)5.8 mphClear
2:15 AM29.7 °F19.6 °F66 %30.15 in10.0 miNNW (340°)5.8 mphClear
2:35 AM30.6 °F20.1 °F65 %30.15 in10.0 miNNW (330°)11.5 mph16.1 mphClear
2:55 AM30.7 °F19.9 °F64 %30.15 in10.0 miNW (320°)9.2 mphClear
3:15 AM27.7 °F18.7 °F69 %30.16 in10.0 miEast (80°)4.6 mphClear
3:35 AM26.6 °F19.2 °F74 %30.16 in10.0 miENE (60°)6.9 mphClear
3:55 AM29.7 °F19.6 °F66 %30.16 in10.0 miNNE (20°)4.6 mphClear
4:15 AM29.1 °F19.6 °F68 %30.17 in10.0 miCalmClear
4:35 AM28.6 °F19.9 °F70 %30.17 in10.0 miNNW (340°)6.9 mphClear
4:55 AM31.3 °F20.7 °F65 %30.17 in10.0 miNW (320°)12.7 mph18.4 mphClear
5:15 AM32.0 °F21.4 °F65 %30.16 in10.0 miNW (320°)18.4 mph24.2 mphClear
5:35 AM32.4 °F21.2 °F63 %30.16 in10.0 miNW (310°)19.6 mph29.9 mphClear
5:55 AM32.0 °F21.0 °F64 %30.16 in10.0 miNW (310°)18.4 mphClear
6:15 AM32.0 °F21.2 °F64 %30.16 in10.0 miNW (310°)24.2 mph31.1 mphClear
6:35 AM32.0 °F21.2 °F64 %30.17 in10.0 miNW (310°)20.7 mph26.5 mphClear
6:55 AM31.6 °F21.0 °F65 %30.18 in10.0 miNW (310°)19.6 mph26.5 mphClear
7:15 AM32.0 °F20.7 °F63 %30.19 in10.0 miNW (310°)19.6 mphClear
7:35 AM32.9 °F20.7 °F61 %30.21 in10.0 miNW (310°)15.0 mphClear
7:55 AM32.0 °F21.2 °F64 %30.24 in10.0 miNE (50°)10.4 mphClear
8:15 AM32.0 °F22.1 °F67 %30.25 in10.0 miNNE (30°)12.7 mph17.3 mphClear
8:35 AM33.4 °F22.8 °F65 %30.25 in10.0 miNNW (330°)8.1 mphClear
8:55 AM36.3 °F22.8 °F58 %30.24 in10.0 miNW (310°)15.0 mphClear
9:15 AM39.4 °F20.8 °F47 %30.23 in10.0 miNW (310°)24.2 mph27.6 mphClear
9:35 AM40.5 °F19.4 °F43 %30.24 in10.0 miNW (310°)23.0 mph27.6 mphClear
9:55 AM41.7 °F18.7 °F40 %30.24 in10.0 miNW (320°)23.0 mph32.2 mphClear
10:15 AM43.0 °F18.3 °F37 %30.24 in10.0 miNW (310°)19.6 mph26.5 mphClear
10:35 AM43.9 °F17.2 °F34 %30.25 in10.0 miWNW (300°)15.0 mph23.0 mphClear
10:55 AM44.4 °F16.9 °F33 %30.26 in10.0 miNNW (340°)12.7 mph17.3 mphClear
11:15 AM44.6 °F16.3 °F32 %30.24 in10.0 miNW (310°)23.0 mph27.6 mphClear
11:35 AM45.9 °F16.3 °F31 %30.22 in10.0 miNNW (330°)26.5 mph32.2 mphClear
11:55 AM45.9 °F15.4 °F30 %30.22 in10.0 miNNW (330°)25.3 mph35.7 mphClear
12:15 PM46.8 °F14.7 °F28 %30.21 in10.0 miNW (320°)21.9 mph29.9 mphClear
12:35 PM47.8 °F15.8 °F28 %30.22 in10.0 miNNW (330°)15.0 mph24.2 mphClear
12:55 PM47.5 °F16.7 °F29 %30.21 in10.0 miNNW (340°)13.8 mph18.4 mphClear
1:15 PM47.7 °F16.9 °F29 %30.18 in10.0 miNNW (340°)19.6 mphClear
1:35 PM48.6 °F16.9 °F28 %30.19 in10.0 miNNW (330°)19.6 mph24.2 mphClear
1:55 PM48.6 °F16.0 °F27 %30.20 in10.0 miNNW (330°)9.2 mph21.9 mphClear
2:15 PM48.9 °F17.6 °F29 %30.20 in10.0 miWNW (300°)13.8 mph20.7 mphClear
2:35 PM49.6 °F16.5 °F27 %30.21 in10.0 miWNW (300°)15.0 mph20.7 mphClear
2:55 PM50.0 °F16.7 °F27 %30.22 in10.0 miWNW (300°)11.5 mphClear
3:15 PM50.2 °F17.8 °F28 %30.22 in10.0 miWNW (300°)6.9 mphClear
3:35 PM51.1 °F17.1 °F26 %30.23 in10.0 miWest (270°)10.4 mphClear
3:55 PM50.0 °F17.1 °F27 %30.23 in10.0 miWest (280°)8.1 mphClear
4:15 PM48.6 °F17.8 °F29 %30.23 in10.0 miWest (270°)9.2 mphClear
4:35 PM47.1 °F17.2 °F30 %30.22 in10.0 miNW (310°)8.1 mphClear
4:55 PM45.0 °F16.7 °F32 %30.23 in10.0 miWNW (290°)9.2 mphClear
5:15 PM43.7 °F14.9 °F31 %30.23 in10.0 miWSW (240°)4.6 mphClear
5:35 PM39.7 °F14.7 °F36 %30.24 in10.0 miWSW (250°)8.1 mphClear
6:15 PM35.8 °F14.9 °F43 %30.25 in10.0 miCalmClear
6:35 PM34.3 °F14.9 °F45 %30.24 in10.0 miNNE (20°)5.8 mphClear
7:15 PM33.4 °F15.8 °F48 %30.25 in10.0 miCalmClear
7:35 PM34.0 °F18.1 °F52 %30.24 in10.0 miCalmClear
7:55 PM31.5 °F16.3 °F54 %30.24 in10.0 miNNW (340°)3.5 mphClear
8:15 PM29.3 °F17.1 °F60 %30.24 in10.0 miNNW (330°)3.5 mphClear
8:35 PM31.3 °F18.1 °F58 %30.24 in10.0 miNW (310°)6.9 mphClear
8:55 PM28.8 °F16.9 °F61 %30.25 in10.0 miNorth (350°)5.8 mphClear
9:15 PM27.5 °F17.2 °F65 %30.25 in10.0 miWest (270°)4.6 mphClear
9:35 PM24.6 °F15.8 °F69 %30.26 in10.0 miSSW (210°)4.6 mphClear
9:55 PM22.5 °F15.1 °F73 %30.26 in10.0 miSW (220°)6.9 mphClear
10:15 PM23.9 °F15.8 °F71 %30.27 in10.0 miESE (120°)3.5 mphClear
10:35 PM22.6 °F14.9 °F72 %30.27 in10.0 miCalmClear
10:55 PM21.0 °F15.3 °F78 %30.27 in10.0 miCalmClear
11:15 PM20.7 °F14.9 °F78 %30.27 in10.0 miCalmClear
11:35 PM21.0 °F15.3 °F78 %30.27 in10.0 miCalmClear
11:55 PM19.6 °F14.4 °F80 %30.27 in10.0 miCalmClear
Hourly data recorded from K4MY, located miles away from Otto, New Mexico







STORIES FROM OUR PARTNERS